Volver al catálogo

TURKSAT 1C

ActivoComunicacionesGEO
NORAD 23949·PAYLOAD·🇹🇷 Turkey

Lanzado Jul 9, 1996 desde Guiana Space Centre

Loading…

TLE

ActualizadoSource: Space-Track

Época: Sep 13, 2026, 17:52 UTC

1 23949U 96040B   26256.74493458 -.00000364  00000-0  00000-0 0  9995
2 23949  12.1923  29.4535 0007883 178.6240 179.5231  1.00303103110561

Sigue TURKSAT 1C en tiempo real con AllMySat

Download on the App Store